TimeMDT,TemperatureF,Dew PointF,Humidity,Sea Level PressureIn,VisibilityMPH,Wind Direction,Wind SpeedMPH,Gust SpeedMPH,PrecipitationIn,Events,Conditions,WindDirDegrees,DateUTC
12:53 AM,45.0,35.1,68,29.85,10.0,Calm,Calm,-,N/A,,Clear,0,2012-11-01 06:53:00
1:53 AM,45.0,35.1,68,29.84,10.0,Calm,Calm,-,N/A,,Clear,0,2012-11-01 07:53:00
2:53 AM,44.1,35.1,71,29.83,10.0,Calm,Calm,-,N/A,,Clear,0,2012-11-01 08:53:00
3:53 AM,43.0,35.1,74,29.83,10.0,Calm,Calm,-,N/A,,Partly Cloudy,0,2012-11-01 09:53:00
4:53 AM,44.1,36.0,73,29.82,10.0,Calm,Calm,-,N/A,,Clear,0,2012-11-01 10:53:00
5:53 AM,46.0,35.1,66,29.83,10.0,West,10.4,-,N/A,,Partly Cloudy,260,2012-11-01 11:53:00
6:53 AM,45.0,34.0,65,29.85,10.0,Calm,Calm,-,N/A,,Clear,0,2012-11-01 12:53:00
7:53 AM,43.0,35.1,74,29.86,10.0,North,5.8,-,N/A,,Clear,350,2012-11-01 13:53:00
8:53 AM,42.1,35.1,76,29.88,10.0,Calm,Calm,-,N/A,,Mostly Cloudy,0,2012-11-01 14:53:00
9:53 AM,45.0,36.0,71,29.88,10.0,South,3.5,-,N/A,,Overcast,180,2012-11-01 15:53:00
10:53 AM,48.9,37.0,64,29.87,10.0,North,4.6,-,N/A,,Mostly Cloudy,10,2012-11-01 16:53:00
11:53 AM,46.0,37.9,73,29.89,10.0,Calm,Calm,-,N/A,,Partly Cloudy,0,2012-11-01 17:53:00
12:53 PM,50.0,37.9,63,29.87,10.0,Calm,Calm,-,N/A,,Overcast,0,2012-11-01 18:53:00
1:53 PM,55.4,33.8,44,29.81,10.0,West,19.6,24.2,N/A,,Overcast,270,2012-11-01 19:53:00
2:53 PM,57.9,34.0,41,29.83,10.0,WNW,4.6,-,N/A,,Mostly Cloudy,300,2012-11-01 20:53:00
3:53 PM,61.0,33.1,35,29.82,10.0,West,11.5,-,N/A,,Mostly Cloudy,280,2012-11-01 21:53:00
4:53 PM,55.9,30.9,39,29.84,10.0,WNW,8.1,-,N/A,,Mostly Cloudy,300,2012-11-01 22:53:00
5:53 PM,52.0,32.0,47,29.87,10.0,WNW,4.6,-,N/A,,Clear,290,2012-11-01 23:53:00
6:53 PM,48.0,34.0,58,29.95,10.0,WNW,13.8,-,N/A,,Mostly Cloudy,300,2012-11-02 00:53:00
7:53 PM,46.9,34.0,61,29.98,10.0,West,8.1,-,N/A,,Partly Cloudy,270,2012-11-02 01:53:00
8:53 PM,46.9,34.0,61,29.97,10.0,West,13.8,-,N/A,,Clear,270,2012-11-02 02:53:00
9:53 PM,45.0,33.1,63,30.00,10.0,West,4.6,-,N/A,,Clear,260,2012-11-02 03:53:00
10:53 PM,45.0,33.1,63,30.02,10.0,SW,3.5,-,N/A,,Mostly Cloudy,230,2012-11-02 04:53:00
11:53 PM,46.0,33.1,61,30.04,10.0,WNW,5.8,-,N/A,,Overcast,300,2012-11-02 05:53:00